[[[{"header":{"parameterUnit":"kt","parameterCategory":2,"dx":1,"dy":1,"la1":30.253999710083008,"la2":30.299108505249023,"lo1":-89.0895004272461,"lo2":-89.04439544677734,"nx":28,"ny":28,"refTime":"2022-09-19T21:00:00:Z","depth":"0","parameterNumber":2,"parameterNumberName":"U-component_of_CURRENTS"},"data":[0.4176,0.3891,0.3831,0.3664,0.3588,0.3503,0.3495,0.3458,0.3487,0.3516,0.3611,0.3736,0.4032,0.4143,0.4114,0.4068,0.3641,0.3484,0.3353,0.3925,0.3963,0.4,0.3891,0.3625,0.3624,0.2444,0.2435,0.2429,0.4333,0.4159,0.3968,0.373,0.3667,0.3646,0.3598,0.357,0.3604,0.368,0.3773,0.4023,0.4251,0.4484,0.4745,0.4621,0.4429,0.4439,0.3993,0.3934,0.4714,0.463,0.4516,0.4517,0.4517,0.4517,0.4517,0.4518,0.4562,0.4382,0.4117,0.3931,0.3805,0.3743,0.3678,0.3678,0.37,0.3776,0.3901,0.4052,0.436,0.4831,0.4942,0.5023,0.4934,0.4944,0.4874,0.4588,0.4387,0.5167,0.5254,0.5255,0.5256,0.5257,0.5257,0,0.4688,0.4565,0.4347,0.412,0.3975,0.3847,0.3775,0.3777,0.3832,0.3888,0.3996,0.4124,0.4464,0.4707,0.5027,0.5196,0.4999,0.5307,0.5059,0.4838,0.4434,0.4351,0.5192,0.5259,0.5259,0.526,0.5261,0.5261,0.4809,0.4684,0.4371,0.4237,0.4127,0.3985,0.3926,0.3936,0.3941,0.4044,0.407,0.4272,0.4414,0.4765,0.5032,0.5295,0.5063,0.5322,0.5301,0.5008,0.495,0.4639,0.4534,0.5271,0.5269,0.5268,0.5267,0,0.4829,0.4713,0.4483,0.4274,0.4218,0.4102,0.4007,0.3992,0.4057,0.4087,0.4129,0.4312,0.4515,0.4732,0.4998,0.5107,0.5123,0.5335,0.5212,0.5246,0.5057,0.4968,0.4629,0.4501,0.5423,0.5423,0.5423,0,0.485,0.4711,0.4528,0.4419,0.425,0.4197,0.4106,0.41,0.4155,0.4164,0.4305,0.4372,0.4619,0.4776,0.493,0.5117,0.5159,0.5223,0.5275,0.5207,0.5198,0.5043,0.4955,0.5307,0.5306,0.5305,0.5304,0,0.4961,0.4723,0.4556,0.4481,0.4312,0.4256,0.4197,0.4217,0.4206,0.43,0.4351,0.4495,0.4593,0.4751,0.4937,0.4938,0.5148,0.5189,0.5243,0.5242,0.5251,0.5247,0.5027,0.5303,0.5303,0.5302,0.5302,0,0.4999,0.4868,0.4661,0.4501,0.4457,0.4358,0.4298,0.4238,0.4302,0.4345,0.4435,0.4547,0.4638,0.4696,0.4892,0.4856,0.496,0.505,0.5059,0.5077,0.5133,0.5175,0.5153,0.4908,0.5164,0.5163,0.5162,0,0.5132,0.493,0.4868,0.4664,0.4555,0.4541,0.4468,0.4445,0.4465,0.4479,0.4579,0.4621,0.4674,0.4733,0.4782,0.4931,0.4963,0.4895,0.5136,0.5142,0.5125,0.5103,0.5034,0.5132,0.5144,0.5145,0.5147,0,0.5253,0.5082,0.5052,0.497,0.4855,0.478,0.4699,0.4636,0.4629,0.4621,0.4621,0.4646,0.4749,0.4767,0.4836,0.4878,0.4934,0.4948,0.4955,0.5,0.5112,0.5082,0.5091,0.5008,0.501,0.5011,0.5132,0,0.5348,0.5218,0.5158,0.5033,0.4968,0.4872,0.4828,0.48,0.48,0.4791,0.4817,0.4862,0.4897,0.4902,0.4922,0.4953,0.499,0.5043,0.5076,0.5041,0.5096,0.5107,0.5007,0.5009,0.5011,0.5012,0,0,0.5504,0.5344,0.5321,0.5226,0.5151,0.5163,0.5055,0.502,0.4955,0.4958,0.4981,0.5006,0.5033,0.5033,0.5007,0.5019,0.5077,0.5008,0.5043,0.5045,0.5048,0.5099,0.5108,0.5015,0.5016,0.5016,0.5017,0,0.5536,0.5449,0.5358,0.5299,0.5227,0.5183,0.5169,0.5095,0.5081,0.5013,0.5072,0.5106,0.5069,0.5094,0.5103,0.504,0.5127,0.5051,0.4966,0.5053,0.5054,0.5055,0.5104,0.5111,0.5021,0.5021,0.502,0,0.5637,0.556,0.5498,0.5363,0.5316,0.5222,0.5264,0.5194,0.5126,0.5197,0.5115,0.517,0.5196,0.5164,0.5161,0.5169,0.5162,0.5137,0.5129,0.5128,0.5223,0.5222,0.5221,0.5237,0.5237,0.5238,0,0,0.5679,0.5581,0.5486,0.5363,0.5334,0.5281,0.5238,0.5225,0.5191,0.5184,0.5183,0.5195,0.5208,0.5201,0.5215,0.5168,0.5229,0.516,0.515,0.5141,0.5135,0.5226,0.5225,0.5239,0.5239,0.5239,0,0,0.5703,0.5576,0.5561,0.5402,0.5346,0.526,0.5211,0.5207,0.5184,0.5202,0.5228,0.5234,0.5233,0.5242,0.5256,0.5221,0.5268,0.5264,0.5196,0.5184,0.5174,0.5166,0.5312,0,0,0,0,0,0.5703,0.5589,0.5576,0.5539,0.5354,0.5259,0.5241,0.5211,0.5235,0.5208,0.5219,0.5262,0.5253,0.5267,0.5267,0.5245,0.5258,0.5255,0.5252,0.5157,0.5144,0.5133,0,0,0,0,0,0,0.5688,0.5642,0.5579,0.5481,0.5439,0.5261,0.5288,0.5278,0.5239,0.5243,0.5252,0.5261,0.5278,0.5269,0.5269,0.5247,0.5312,0.5257,0.5254,0.5251,0.5152,0.5142,0.5132,0,0,0,0,0,0.5676,0.5639,0.5342,0.5484,0.5448,0.5381,0.5292,0.5284,0.5262,0.5261,0.5267,0.5245,0.5275,0.528,0.527,0.5247,0.5312,0.5312,0.5255,0.5253,0.5251,0.5147,0,0,0,0,0,0,0.5668,0.5645,0.5335,0.5325,0.5518,0.5393,0.5369,0.5289,0.5286,0.5285,0.5257,0.5261,0.5272,0.5276,0.5279,0.5244,0.5313,0.5312,0.5312,0.5253,0.5251,0.525,0,0,0,0,0,0,0.5665,0.5636,0.533,0.5375,0.5369,0.5404,0.5383,0.537,0.5291,0.5285,0.5285,0.526,0.5311,0.5274,0.5276,0.5254,0.5313,0.5313,0.5313,0.5312,0.5252,0.525,0,0,0,0,0,0,0.5653,0.5628,0.5378,0.5373,0.5369,0.5252,0.54,0.5241,0.5235,0.529,0.5243,0.5247,0.5311,0.5311,0.5274,0.525,0.5253,0.5313,0.5313,0.5313,0.5313,0,0,0,0,0,0,0,0.5643,0.5807,0.5393,0.5372,0.5369,0.5227,0.5224,0.5222,0.5235,0.5239,0.5242,0.5245,0.5314,0.5314,0.5314,0.5246,0,0,0.5313,0.5313,0,0,0,0,0,0,0,0,0.5818,0.5809,0.5392,0.539,0.5387,0.5226,0.5224,0.5222,0.5236,0.5239,0.5241,0.5244,0.5314,0.5314,0.5314,0,0,0,0,0,0,0,0,0,0,0,0,0,0,0,0.5392,0.539,0,0.5226,0.5224,0.5223,0.5236,0.5239,0.5241,0.5243,0.5314,0.5314,0.5314,0,0,0,0,0,0,0,0,0,0,0,0,0,0,0,0,0,0,0,0,0,0,0,0,0,0,0,0,0,0,0,0,0,0,0,0,0,0,0,0,0,0,0,0,0,0,0,0,0,0,0,0,0,0,0,0,0,0,0,0,0,0,0,0,0,0,0,0,0]}],[{"header":{"parameterUnit":"kt","parameterCategory":2,"dx":1,"dy":1,"la1":30.253999710083008,"la2":30.299108505249023,"lo1":-89.0895004272461,"lo2":-89.04439544677734,"nx":28,"ny":28,"refTime":"2022-09-19T21:00:00:Z","depth":"0","parameterNumber":3,"parameterNumberName":"V-component_of_CURRENTS"},"data":[-0.182,-0.1565,-0.1422,-0.1111,-0.0946,-0.0764,-0.0672,-0.0486,-0.0274,0.0122,0.0436,0.0632,0.0841,0.0678,0.0629,0.0546,0.0432,0.0323,0.0276,0.0291,0.0265,0.0241,0.0301,0.0476,0.0475,0.0377,0.0376,0.0375,-0.1903,-0.1699,-0.1435,-0.1129,-0.0975,-0.0899,-0.073,-0.0605,-0.0432,-0.0187,-0.0035,0.0283,0.0409,0.0464,0.0492,0.0392,0.0297,0.0315,0.0204,0.0249,0.0252,0.0323,0.0506,0.0506,0.0506,0.0506,0.0506,0.0506,-0.2016,-0.1826,-0.1514,-0.1254,-0.1075,-0.0935,-0.0799,-0.0664,-0.0517,-0.0303,-0.0291,-0.0045,0.0072,0.0155,0.0093,0.0141,-0.0008,0.0117,0.002,-0.0096,0.0016,0.0043,0.0111,0.011,0.0108,0.0107,0.0106,0,-0.2099,-0.1974,-0.166,-0.1372,-0.1184,-0.0971,-0.079,-0.0735,-0.0563,-0.0471,-0.0345,-0.0264,-0.017,-0.0066,-0.0056,-0.0105,-0.0197,-0.0179,-0.0173,-0.0083,-0.0145,-0.0082,-0.0143,-0.0116,-0.0119,-0.0122,-0.0123,-0.0124,-0.2336,-0.2079,-0.1621,-0.1463,-0.125,-0.1001,-0.0872,-0.0689,-0.061,-0.0441,-0.0411,-0.0325,-0.0242,-0.0236,-0.0243,-0.0286,-0.0343,-0.0245,-0.0263,-0.0208,-0.0282,-0.0381,-0.0322,-0.0156,-0.0152,-0.0149,-0.0146,0,-0.2486,-0.2182,-0.1733,-0.1302,-0.1209,-0.1013,-0.0751,-0.0657,-0.0554,-0.0455,-0.0438,-0.0342,-0.0309,-0.0324,-0.0386,-0.0422,-0.0439,-0.0465,-0.0317,-0.0297,-0.0237,-0.0302,-0.0408,-0.0339,-0.0458,-0.0456,-0.0454,0,-0.258,-0.2251,-0.1837,-0.1571,-0.1281,-0.0986,-0.0784,-0.0639,-0.0528,-0.0439,-0.0396,-0.0353,-0.0387,-0.0388,-0.044,-0.0448,-0.0501,-0.0487,-0.0486,-0.0382,-0.0364,-0.0344,-0.0403,-0.0606,-0.0605,-0.0605,-0.0605,0,-0.2842,-0.2229,-0.1837,-0.1625,-0.111,-0.0986,-0.0798,-0.0618,-0.0509,-0.0429,-0.0398,-0.0384,-0.0372,-0.0436,-0.0436,-0.0452,-0.0491,-0.0523,-0.0484,-0.0478,-0.0389,-0.037,-0.0359,-0.0604,-0.0604,-0.0604,-0.0604,0,-0.2837,-0.251,-0.1966,-0.1519,-0.1382,-0.1116,-0.0862,-0.0617,-0.0498,-0.0439,-0.0413,-0.0388,-0.0372,-0.0401,-0.0433,-0.0408,-0.0449,-0.0467,-0.047,-0.0383,-0.0364,-0.0311,-0.0288,-0.0257,-0.0487,-0.0486,-0.0485,0,-0.3146,-0.2574,-0.2359,-0.1828,-0.1492,-0.1297,-0.1067,-0.0828,-0.0695,-0.0544,-0.055,-0.0401,-0.0395,-0.037,-0.0396,-0.0377,-0.0417,-0.038,-0.0448,-0.045,-0.0376,-0.0374,-0.0252,-0.0281,-0.0473,-0.0474,-0.0475,0,-0.3388,-0.2813,-0.2741,-0.2492,-0.2003,-0.1737,-0.1462,-0.113,-0.1049,-0.0751,-0.0637,-0.0414,-0.0458,-0.0371,-0.033,-0.0355,-0.0396,-0.0355,-0.0357,-0.0392,-0.0469,-0.037,-0.0368,-0.0409,-0.041,-0.0411,-0.0465,0,-0.3281,-0.3043,-0.2896,-0.2487,-0.2217,-0.1887,-0.1579,-0.1372,-0.1241,-0.1041,-0.0855,-0.0656,-0.0476,-0.044,-0.0348,-0.0331,-0.033,-0.0333,-0.0349,-0.0351,-0.037,-0.0377,-0.0287,-0.0287,-0.0287,-0.0287,0,0,-0.358,-0.3312,-0.3169,-0.2851,-0.2604,-0.2372,-0.2038,-0.1797,-0.1287,-0.121,-0.1165,-0.0772,-0.062,-0.0458,-0.0419,-0.0315,-0.0332,-0.0309,-0.0335,-0.034,-0.0345,-0.0364,-0.0371,-0.0287,-0.0287,-0.0287,-0.0287,0,-0.3532,-0.3488,-0.3317,-0.3015,-0.261,-0.2358,-0.2289,-0.1807,-0.1649,-0.1263,-0.1183,-0.1057,-0.0637,-0.054,-0.0451,-0.0316,-0.0324,-0.0288,-0.0296,-0.0333,-0.0338,-0.0343,-0.0363,-0.0369,-0.0286,-0.0286,-0.0286,0,-0.3617,-0.3445,-0.3392,-0.3015,-0.2729,-0.2381,-0.2308,-0.1969,-0.1719,-0.1557,-0.1176,-0.1054,-0.0865,-0.0609,-0.0506,-0.0512,-0.0332,-0.0311,-0.0311,-0.0322,-0.0361,-0.0366,-0.037,-0.0319,-0.032,-0.032,0,0,-0.358,-0.3489,-0.311,-0.2981,-0.2824,-0.2432,-0.2218,-0.2015,-0.1694,-0.1554,-0.1303,-0.1111,-0.0929,-0.0801,-0.0583,-0.034,-0.0361,-0.0317,-0.0315,-0.0314,-0.0324,-0.0362,-0.0366,-0.0321,-0.0321,-0.0321,0,0,-0.352,-0.3232,-0.3178,-0.3032,-0.2666,-0.2181,-0.2,-0.1846,-0.1523,-0.1548,-0.1322,-0.125,-0.1014,-0.0897,-0.093,-0.0632,-0.0644,-0.0626,-0.0679,-0.0674,-0.0673,-0.0737,-0.0876,0,0,0,0,0,-0.3343,-0.3285,-0.3244,-0.318,-0.2696,-0.2235,-0.2135,-0.1842,-0.1867,-0.1691,-0.1486,-0.1445,-0.0882,-0.0903,-0.0828,-0.0798,-0.0334,-0.0331,-0.0329,-0.0341,-0.0338,-0.0337,0,0,0,0,0,0,-0.3316,-0.3253,-0.3238,-0.2804,-0.2687,-0.2241,-0.2203,-0.2112,-0.1875,-0.1853,-0.1478,-0.1432,-0.1257,-0.0932,-0.0866,-0.0843,-0.0897,-0.0333,-0.0331,-0.0329,-0.034,-0.0338,-0.0337,0,0,0,0,0,-0.3293,-0.324,-0.2613,-0.279,-0.269,-0.2266,-0.2209,-0.2133,-0.1923,-0.1606,-0.1546,-0.1729,-0.1258,-0.1192,-0.0892,-0.0878,-0.0942,-0.0918,-0.0331,-0.033,-0.0329,-0.0339,0,0,0,0,0,0,-0.3275,-0.3078,-0.2577,-0.2523,-0.2871,-0.2276,-0.2201,-0.2153,-0.1686,-0.1621,-0.1853,-0.1843,-0.1255,-0.1205,-0.1155,-0.0901,-0.0978,-0.0953,-0.0938,-0.033,-0.0329,-0.0328,0,0,0,0,0,0,-0.3103,-0.3039,-0.2548,-0.2669,-0.2625,-0.2287,-0.2222,-0.1961,-0.1693,-0.1957,-0.1933,-0.1856,-0.1428,-0.1213,-0.1175,-0.0763,-0.1005,-0.0982,-0.0966,-0.0956,-0.0329,-0.0328,0,0,0,0,0,0,-0.3064,-0.3007,-0.2679,-0.2646,-0.2607,-0.1965,-0.205,-0.1625,-0.1641,-0.1987,-0.1655,-0.1661,-0.1446,-0.1395,-0.1188,-0.0794,-0.0771,-0.1005,-0.0989,-0.0978,-0.097,0,0,0,0,0,0,0,-0.3032,-0.3563,-0.2919,-0.2627,-0.2593,-0.203,-0.2013,-0.1996,-0.1643,-0.1648,-0.1654,-0.1659,-0.1138,-0.1113,-0.1087,-0.0818,0,0,-0.1007,-0.0996,0,0,0,0,0,0,0,0,-0.3572,-0.3565,-0.2917,-0.2908,-0.2898,-0.2027,-0.2013,-0.2,-0.1644,-0.1648,-0.1652,-0.1656,-0.1131,-0.1111,-0.109,0,0,0,0,0,0,0,0,0,0,0,0,0,0,0,-0.2916,-0.2908,0,-0.2025,-0.2014,-0.2002,-0.1644,-0.1648,-0.1651,-0.1655,-0.1125,-0.1109,-0.1091,0,0,0,0,0,0,0,0,0,0,0,0,0,0,0,0,0,0,0,0,0,0,0,0,0,0,0,0,0,0,0,0,0,0,0,0,0,0,0,0,0,0,0,0,0,0,0,0,0,0,0,0,0,0,0,0,0,0,0,0,0,0,0,0,0,0,0,0,0]}]],[[{"header":{"parameterUnit":"kt","parameterCategory":2,"dx":1,"dy":1,"la1":30.253999710083008,"la2":30.299108505249023,"lo1":-89.0895004272461,"lo2":-89.04439544677734,"nx":28,"ny":28,"refTime":"2022-09-19T21:00:00:Z","depth":"2","parameterNumber":2,"parameterNumberName":"U-component_of_CURRENTS"},"data":[0.283,0.2827,0.2832,0.2756,0.2759,0.2647,0.2611,0.2439,0.2317,0.2027,0.1849,0.1927,0.2033,0.163,0.1638,0.1506,0.1858,0.1462,0.2297,0.2435,0.2509,0.2728,0.2458,0,0,0,0,0,0.2854,0.2876,0.2892,0.2874,0.2835,0.2887,0.2848,0.2735,0.2693,0.2632,0.2612,0.222,0.2179,0.2273,0.2054,0.2061,0.2127,0.2038,0.2094,0.2176,0.2251,0.2025,0.1435,0.1433,0.1431,0.143,0,0,0.2887,0.2902,0.2911,0.2926,0.2936,0.2917,0.2894,0.2907,0.2924,0.2879,0.2997,0.2924,0.2929,0.2828,0.2858,0.2834,0.3087,0.2975,0.301,0.3055,0.2862,0.2721,0.2496,0.2501,0.2505,0.2509,0.2512,0,0.2876,0.2904,0.2925,0.2932,0.2954,0.2971,0.3007,0.3007,0.309,0.3141,0.3205,0.3294,0.3398,0.3318,0.3415,0.3473,0.3626,0.349,0.4196,0.3369,0.324,0.3253,0.3283,0.3146,0.3155,0.3162,0.3166,0.317,0.2872,0.2884,0.2928,0.2937,0.2961,0.3018,0.3049,0.3137,0.3167,0.3285,0.3306,0.3481,0.3594,0.382,0.3845,0.4012,0.4245,0.3701,0.3603,0.4131,0.4144,0.4142,0.4138,0.3265,0.3253,0.3243,0.3235,0,0.2886,0.2872,0.2911,0.296,0.298,0.3035,0.3114,0.3164,0.3267,0.3345,0.3391,0.3567,0.3748,0.3969,0.4237,0.4224,0.4357,0.4352,0.3937,0.3891,0.4188,0.4175,0.4206,0.4197,0.419,0.4184,0.4179,0,0.2863,0.2903,0.2901,0.2923,0.2983,0.3054,0.3141,0.3238,0.3344,0.3406,0.3569,0.3632,0.389,0.4037,0.4205,0.4276,0.4437,0.4296,0.4309,0.3995,0.3944,0.4546,0.4537,0.461,0.4609,0.4608,0.4607,0,0.2869,0.2892,0.2905,0.2934,0.3015,0.307,0.3141,0.3285,0.3351,0.3513,0.3573,0.3762,0.3856,0.403,0.4204,0.4212,0.4424,0.4457,0.4316,0.43,0.4035,0.3987,0.4605,0.4605,0.4605,0.4604,0.4604,0,0.2868,0.286,0.2877,0.2962,0.2989,0.304,0.32,0.3272,0.3425,0.3512,0.3642,0.3756,0.3893,0.3924,0.4156,0.411,0.4226,0.4309,0.4318,0.4096,0.4093,0.3849,0.3777,0.4409,0.4407,0.4405,0.4403,0,0.2902,0.2877,0.2888,0.2952,0.2984,0.3094,0.3163,0.3282,0.3397,0.3514,0.3637,0.3772,0.3836,0.3914,0.3984,0.4138,0.4197,0.4112,0.4334,0.434,0.4073,0.4068,0.3693,0.3771,0.4378,0.4381,0.4383,0,0.2925,0.2905,0.292,0.2954,0.3044,0.3092,0.3172,0.3292,0.3366,0.3498,0.3602,0.3767,0.3849,0.3922,0.4012,0.4065,0.4156,0.4124,0.413,0.4159,0.4342,0.4069,0.406,0.4205,0.4208,0.421,0.4363,0,0.2961,0.2969,0.2957,0.2987,0.3042,0.3086,0.3185,0.327,0.3373,0.346,0.3624,0.3746,0.3896,0.3937,0.3997,0.4099,0.4131,0.4155,0.4141,0.4168,0.4233,0.4248,0.4086,0.4087,0.4088,0.4088,0,0,0.3039,0.2998,0.3017,0.3018,0.3068,0.3171,0.3205,0.3275,0.3422,0.3489,0.3528,0.3782,0.3874,0.3993,0.4017,0.4065,0.4125,0.4058,0.4154,0.416,0.4167,0.4229,0.4242,0.409,0.409,0.4091,0.4091,0,0.3032,0.3044,0.3006,0.3053,0.3118,0.3178,0.3201,0.3306,0.338,0.3493,0.3602,0.3715,0.3874,0.3953,0.4013,0.4069,0.4137,0.4116,0.4075,0.4158,0.4164,0.4169,0.423,0.4241,0.4093,0.4093,0.4093,0,0.3085,0.3083,0.3069,0.3104,0.3156,0.3196,0.3262,0.3317,0.3376,0.3489,0.3611,0.372,0.3837,0.3937,0.3995,0.3983,0.4125,0.4084,0.4082,0.4084,0.4171,0.4177,0.4183,0.4108,0.4108,0.4107,0,0,0.3098,0.3061,0.3123,0.3113,0.3137,0.3231,0.3269,0.3333,0.3425,0.3478,0.3588,0.3702,0.381,0.3863,0.3969,0.4041,0.409,0.408,0.408,0.4079,0.408,0.4167,0.4173,0.4106,0.4106,0.4106,0,0,0.3116,0.3121,0.3158,0.3137,0.3203,0.328,0.3302,0.3371,0.3482,0.3509,0.362,0.3654,0.3783,0.3833,0.3798,0.3958,0.3968,0.3977,0.3905,0.3905,0.3905,0.388,0.3847,0,0,0,0,0,0.314,0.3107,0.3139,0.3143,0.3203,0.3255,0.3272,0.3358,0.3408,0.3439,0.3551,0.3597,0.3839,0.381,0.3837,0.3867,0.4083,0.4087,0.4091,0.4019,0.4019,0.4019,0,0,0,0,0,0,0.3142,0.3144,0.3141,0.3202,0.3217,0.3255,0.3311,0.3336,0.3407,0.3422,0.3573,0.3599,0.3665,0.3801,0.3824,0.3852,0.3839,0.4084,0.4088,0.4091,0.4019,0.4019,0.4019,0,0,0,0,0,0.3144,0.3146,0.3208,0.3206,0.3219,0.3322,0.3313,0.3334,0.3411,0.3513,0.3543,0.3477,0.3661,0.3691,0.3815,0.384,0.3824,0.3832,0.4087,0.4089,0.4092,0.4019,0,0,0,0,0,0,0.3146,0.3187,0.3214,0.3223,0.3221,0.3326,0.3341,0.3333,0.3503,0.3529,0.3418,0.3427,0.3659,0.3682,0.3703,0.3831,0.3811,0.382,0.3825,0.4089,0.4091,0.4093,0,0,0,0,0,0,0.3186,0.3193,0.3219,0.3232,0.3244,0.3329,0.3341,0.342,0.3506,0.3402,0.3412,0.342,0.3642,0.3675,0.3693,0.3812,0.3801,0.3809,0.3815,0.3819,0.409,0.4092,0,0,0,0,0,0,0.3192,0.3198,0.3231,0.324,0.3251,0.3368,0.3405,0.3476,0.347,0.3395,0.3476,0.3479,0.3635,0.3654,0.3685,0.3795,0.3808,0.3802,0.3807,0.3811,0.3814,0,0,0,0,0,0,0,0.3197,0.312,0.315,0.3246,0.3256,0.3309,0.3312,0.3316,0.3471,0.3473,0.3475,0.3478,0.3755,0.3764,0.3773,0.3782,0,0,0.3801,0.3805,0,0,0,0,0,0,0,0,0.3121,0.312,0.3151,0.3152,0.3154,0.3309,0.3312,0.3315,0.3471,0.3473,0.3475,0.3477,0.3757,0.3765,0.3772,0,0,0,0,0,0,0,0,0,0,0,0,0,0,0,0.3151,0.3152,0,0.331,0.3312,0.3314,0.3471,0.3473,0.3474,0.3476,0.3759,0.3765,0.3771,0,0,0,0,0,0,0,0,0,0,0,0,0,0,0,0,0,0,0,0,0,0,0,0,0,0,0,0,0,0,0,0,0,0,0,0,0,0,0,0,0,0,0,0,0,0,0,0,0,0,0,0,0,0,0,0,0,0,0,0,0,0,0,0,0,0,0,0,0]}],[{"header":{"parameterUnit":"kt","parameterCategory":2,"dx":1,"dy":1,"la1":30.253999710083008,"la2":30.299108505249023,"lo1":-89.0895004272461,"lo2":-89.04439544677734,"nx":28,"ny":28,"refTime":"2022-09-19T21:00:00:Z","depth":"2","parameterNumber":3,"parameterNumberName":"V-component_of_CURRENTS"},"data":[-0.0268,-0.0206,-0.0131,0.0036,0.0053,0.0181,0.0272,0.0534,0.0791,0.1234,0.1469,0.1859,0.1542,0.1255,0.0961,0.0686,0.0617,0.0658,0.092,0.074,0.0736,0.052,0.0507,0,0,0,0,0,-0.0273,-0.0248,-0.0219,-0.0147,-0.0055,-0.0101,0.0038,0.0222,0.0474,0.0784,0.1102,0.1244,0.1336,0.1209,0.0845,0.0693,0.0578,0.0641,0.0466,0.0462,0.0457,0.0446,0.0505,0.0504,0.0502,0.0501,0,0,-0.026,-0.0264,-0.0249,-0.0218,-0.0205,-0.0121,-0.0041,0.0082,0.0252,0.0578,0.0661,0.1017,0.095,0.1174,0.1004,0.0774,0.0819,0.0695,0.0684,0.0673,0.0683,0.0696,0.0801,0.0802,0.0802,0.0803,0.0804,0,-0.0201,-0.0219,-0.0226,-0.0222,-0.0214,-0.0171,-0.0114,-0.0052,0.0083,0.0207,0.0415,0.0605,0.0769,0.0847,0.0916,0.0884,0.0638,0.0672,0.0671,0.042,0.0422,0.0421,0.0413,0.0475,0.0474,0.0473,0.0472,0.0472,-0.011,-0.0148,-0.0168,-0.0169,-0.0181,-0.0177,-0.0137,-0.0052,0.0021,0.0191,0.0251,0.0406,0.0606,0.0753,0.0695,0.0728,0.0674,0.0643,0.0552,0.0537,0.054,0.053,0.0521,0.0462,0.0463,0.0464,0.0465,0,-0.0048,-0.0062,-0.0103,-0.0097,-0.0094,-0.011,-0.0036,0.0011,0.0077,0.016,0.0175,0.0308,0.0424,0.0456,0.0484,0.0454,0.0493,0.0516,0.0441,0.0449,0.05,0.0496,0.0599,0.0604,0.0608,0.0611,0.0614,0,0.0042,0.0,-0.0007,-0.0036,-0.0047,-0.0004,0.0011,0.0048,0.0122,0.0182,0.0216,0.0285,0.027,0.0329,0.0303,0.0377,0.0336,0.0367,0.0382,0.03,0.0303,0.0219,0.0214,0.0254,0.0254,0.0254,0.0253,0,0.0118,0.0085,0.0039,0.0036,0.0063,0.0056,0.0078,0.0127,0.0162,0.02,0.0235,0.0246,0.026,0.0247,0.0265,0.0222,0.0311,0.0253,0.0344,0.0351,0.0288,0.029,0.0253,0.0253,0.0253,0.0252,0.0252,0,0.0191,0.0164,0.0101,0.0136,0.0123,0.0113,0.0142,0.0155,0.0199,0.0206,0.0212,0.0218,0.0229,0.0192,0.021,0.0194,0.0179,0.0187,0.0188,0.0286,0.0286,0.0269,0.0307,0.0209,0.0209,0.0208,0.0208,0,0.029,0.0215,0.0225,0.0182,0.0147,0.0168,0.0182,0.0187,0.019,0.0201,0.02,0.0197,0.0161,0.0151,0.0152,0.0167,0.0167,0.0145,0.0162,0.0163,0.0275,0.0325,0.0249,0.0296,0.0201,0.0202,0.0203,0,0.0361,0.0321,0.0298,0.0284,0.0251,0.0233,0.0222,0.0214,0.0215,0.0174,0.0184,0.016,0.0146,0.014,0.0132,0.0137,0.0158,0.0115,0.0115,0.0147,0.0186,0.0301,0.0316,0.0147,0.0148,0.0148,0.0197,0,0.0462,0.0407,0.0369,0.0313,0.0297,0.0246,0.024,0.0214,0.0179,0.0178,0.0157,0.0142,0.0122,0.0114,0.0106,0.0112,0.0108,0.0099,0.0093,0.01,0.0119,0.0124,0.0066,0.0065,0.0065,0.0064,0,0,0.0541,0.047,0.0436,0.039,0.0365,0.0328,0.0287,0.0272,0.0211,0.0204,0.017,0.0138,0.0109,0.0121,0.0115,0.0098,0.0101,0.0075,0.0089,0.0092,0.0094,0.0113,0.0118,0.0063,0.0063,0.0063,0.0063,0,0.0575,0.0516,0.0457,0.0434,0.0361,0.0352,0.0322,0.0266,0.0237,0.0198,0.0183,0.0157,0.0104,0.0111,0.0107,0.0094,0.008,0.0068,0.0073,0.0085,0.0088,0.0091,0.0111,0.0115,0.0062,0.0062,0.0062,0,0.0629,0.0583,0.0548,0.0477,0.043,0.0399,0.0371,0.0302,0.0283,0.0252,0.0191,0.0173,0.0154,0.013,0.0103,0.0095,0.0068,0.0055,0.0056,0.0055,0.0067,0.0071,0.0074,0.0038,0.0038,0.0038,0,0,0.0651,0.0597,0.0547,0.0479,0.045,0.04,0.0365,0.033,0.0287,0.0257,0.0216,0.0174,0.0161,0.0128,0.0108,0.0074,0.0078,0.0054,0.0055,0.0056,0.0056,0.0068,0.0071,0.0038,0.0038,0.0038,0,0,0.0665,0.0598,0.0569,0.0491,0.0452,0.0413,0.0362,0.0334,0.0281,0.025,0.0224,0.021,0.0162,0.0136,0.0147,0.0096,0.0088,0.0085,0.0117,0.0118,0.0119,0.0128,0.013,0,0,0,0,0,0.0665,0.0613,0.0588,0.0567,0.0472,0.0432,0.0422,0.0361,0.0321,0.0294,0.0254,0.0226,0.0144,0.0154,0.0143,0.0127,0.0045,0.0043,0.0042,0.0075,0.0077,0.0078,0,0,0,0,0,0,0.0657,0.0634,0.059,0.0549,0.0526,0.0434,0.041,0.0395,0.0322,0.0312,0.024,0.0227,0.0217,0.0157,0.0148,0.0133,0.0133,0.0044,0.0043,0.0042,0.0076,0.0077,0.0078,0,0,0,0,0,0.0651,0.0632,0.0483,0.055,0.053,0.0447,0.0409,0.0396,0.0331,0.0294,0.0278,0.0276,0.022,0.0206,0.0151,0.0138,0.0139,0.0135,0.0044,0.0043,0.0042,0.0076,0,0,0,0,0,0,0.0646,0.0639,0.0479,0.0472,0.0531,0.045,0.0432,0.0397,0.0315,0.0299,0.0335,0.0329,0.0222,0.0211,0.0201,0.0142,0.0144,0.014,0.0138,0.0043,0.0042,0.0042,0,0,0,0,0,0,0.0648,0.0633,0.0476,0.0456,0.0446,0.0453,0.0437,0.0409,0.0315,0.0362,0.0354,0.0333,0.0221,0.0215,0.0207,0.0169,0.0147,0.0144,0.0142,0.0141,0.0043,0.0042,0,0,0,0,0,0,0.0641,0.0629,0.0458,0.0451,0.0442,0.0364,0.0428,0.0326,0.0314,0.0367,0.0308,0.0305,0.0225,0.0217,0.0211,0.0177,0.0171,0.0147,0.0145,0.0144,0.0143,0,0,0,0,0,0,0,0.0636,0.0725,0.0512,0.0446,0.0439,0.0405,0.0404,0.0403,0.0313,0.0311,0.0308,0.0306,0.0165,0.0162,0.0158,0.0184,0,0,0.0148,0.0146,0,0,0,0,0,0,0,0,0.073,0.0726,0.0512,0.051,0.0508,0.0405,0.0404,0.0404,0.0313,0.0311,0.0309,0.0307,0.0164,0.0162,0.0159,0,0,0,0,0,0,0,0,0,0,0,0,0,0,0,0.0512,0.051,0,0.0405,0.0404,0.0404,0.0312,0.0311,0.0309,0.0308,0.0164,0.0161,0.0159,0,0,0,0,0,0,0,0,0,0,0,0,0,0,0,0,0,0,0,0,0,0,0,0,0,0,0,0,0,0,0,0,0,0,0,0,0,0,0,0,0,0,0,0,0,0,0,0,0,0,0,0,0,0,0,0,0,0,0,0,0,0,0,0,0,0,0,0,0]}]],[[{"header":{"parameterUnit":"kt","parameterCategory":2,"dx":1,"dy":1,"la1":30.253999710083008,"la2":30.299108505249023,"lo1":-89.0895004272461,"lo2":-89.04439544677734,"nx":28,"ny":28,"refTime":"2022-09-19T21:00:00:Z","depth":"4","parameterNumber":2,"parameterNumberName":"U-component_of_CURRENTS"},"data":[-0.0531,-0.0514,-0.0535,-0.0484,-0.0445,-0.0398,-0.0367,-0.0348,-0.028,-0.024,-0.0214,-0.015,-0.0139,-0.014,-0.0108,-0.0116,-0.0446,-0.0186,-0.0183,-0.0816,-0.0857,-0.0893,-0.0779,0,0,0,0,0,-0.0576,-0.0529,-0.0547,-0.0454,-0.0456,-0.0406,-0.0364,-0.0344,-0.0307,-0.0242,-0.0198,-0.0183,-0.0133,-0.0182,-0.0118,-0.0266,-0.055,-0.0198,-0.0738,-0.0842,-0.0886,-0.0761,0,0,0,0,0,0,-0.0603,-0.0581,-0.0502,-0.0448,-0.041,-0.0359,-0.0337,-0.0265,-0.0256,-0.0275,-0.0238,-0.0277,-0.0329,-0.0317,-0.0411,-0.0429,-0.0482,-0.0605,-0.066,-0.0704,-0.0561,-0.0207,-0.0016,0,0,0,0,0,-0.0563,-0.0512,-0.0482,-0.0411,-0.0336,-0.032,-0.024,-0.0259,-0.0251,-0.0318,-0.029,-0.0311,-0.038,-0.0541,-0.056,-0.0726,-0.1199,-0.1073,-0.1101,-0.1219,-0.0994,-0.1022,-0.1032,-0.1056,-0.1062,-0.1066,-0.1068,0,-0.0532,-0.0462,-0.0395,-0.0366,-0.0293,-0.0217,-0.0219,-0.0202,-0.0268,-0.0354,-0.0436,-0.0469,-0.0577,-0.0738,-0.098,-0.1124,-0.1135,-0.1187,-0.1313,-0.1064,-0.1083,-0.1081,-0.1078,-0.1104,-0.1101,-0.1098,-0.1095,0,-0.0517,-0.044,-0.0391,-0.0329,-0.0289,-0.0256,-0.0225,-0.0324,-0.0341,-0.0491,-0.0465,-0.0673,-0.0737,-0.1024,-0.1334,-0.138,-0.1535,-0.1458,-0.1609,-0.1644,-0.1153,-0.1135,-0.1163,-0.115,-0.1139,-0.113,-0.1122,0,-0.0527,-0.0485,-0.0389,-0.0349,-0.0326,-0.0286,-0.0336,-0.0401,-0.0536,-0.0662,-0.0768,-0.0868,-0.1163,-0.1338,-0.1432,-0.1433,-0.1703,-0.1466,-0.1485,-0.1819,-0.1798,-0.1972,-0.1967,-0.2016,-0.2016,-0.2017,-0.2017,0,-0.0628,-0.0509,-0.044,-0.0402,-0.0389,-0.0371,-0.0365,-0.0557,-0.065,-0.0801,-0.082,-0.1121,-0.1162,-0.1344,-0.1404,-0.1398,-0.1707,-0.1825,-0.1516,-0.1483,-0.1971,-0.1965,-0.2017,-0.2017,-0.2017,-0.2017,-0.2017,0,-0.0648,-0.0607,-0.0494,-0.0484,-0.0465,-0.0407,-0.0538,-0.0566,-0.0818,-0.0811,-0.0954,-0.1052,-0.1282,-0.1168,-0.1495,-0.1369,-0.1377,-0.152,-0.1527,-0.1312,-0.1305,-0.1538,-0.1519,-0.1516,-0.1513,-0.151,-0.1508,0,-0.0744,-0.0645,-0.0631,-0.0539,-0.047,-0.0482,-0.0543,-0.0615,-0.0641,-0.074,-0.0975,-0.1075,-0.102,-0.1003,-0.1157,-0.1395,-0.1441,-0.1355,-0.1643,-0.165,-0.1271,-0.1191,-0.1484,-0.1468,-0.1473,-0.1477,-0.1479,0,-0.0827,-0.0748,-0.0727,-0.0685,-0.0588,-0.0586,-0.0586,-0.0665,-0.0735,-0.0613,-0.0749,-0.0959,-0.0931,-0.1118,-0.1257,-0.1405,-0.1378,-0.1318,-0.1335,-0.1252,-0.1575,-0.1185,-0.1169,-0.1452,-0.1458,-0.1464,-0.1452,0,-0.084,-0.0799,-0.0768,-0.071,-0.0705,-0.0609,-0.0623,-0.0568,-0.0456,-0.0504,-0.0637,-0.0789,-0.0979,-0.1038,-0.1118,-0.1346,-0.125,-0.139,-0.1474,-0.1467,-0.1448,-0.1468,-0.1302,-0.1307,-0.1311,-0.1315,0,0,-0.0887,-0.0873,-0.0904,-0.0843,-0.0823,-0.0778,-0.0703,-0.0733,-0.0648,-0.0707,-0.0531,-0.083,-0.0961,-0.1355,-0.1286,-0.1358,-0.1348,-0.1297,-0.1452,-0.1465,-0.1479,-0.1461,-0.1476,-0.1322,-0.1323,-0.1325,-0.1326,0,-0.09,-0.093,-0.0908,-0.0888,-0.083,-0.0853,-0.0779,-0.0705,-0.0691,-0.0624,-0.0766,-0.0858,-0.0939,-0.1214,-0.1376,-0.1382,-0.1442,-0.1343,-0.1273,-0.1477,-0.1485,-0.1493,-0.1475,-0.1486,-0.1336,-0.1335,-0.1335,0,-0.0915,-0.0931,-0.0947,-0.0963,-0.0974,-0.0941,-0.0951,-0.0871,-0.0855,-0.0965,-0.0886,-0.0976,-0.1247,-0.1332,-0.1361,-0.1403,-0.1532,-0.1486,-0.1471,-0.1525,-0.1747,-0.1754,-0.176,-0.1679,-0.1678,-0.1678,0,0,-0.0906,-0.0924,-0.0944,-0.0966,-0.0948,-0.0965,-0.0968,-0.0923,-0.0946,-0.0939,-0.0957,-0.1059,-0.1241,-0.1274,-0.141,-0.148,-0.1602,-0.1513,-0.1497,-0.1483,-0.1526,-0.1743,-0.175,-0.1677,-0.1677,-0.1677,0,0,-0.0902,-0.0935,-0.0948,-0.0972,-0.0977,-0.1046,-0.1042,-0.1008,-0.1028,-0.0967,-0.111,-0.1135,-0.1166,-0.1291,-0.1254,-0.1429,-0.1517,-0.1527,-0.1296,-0.1279,-0.1264,-0.1278,-0.139,0,0,0,0,0,-0.0922,-0.0935,-0.0946,-0.0955,-0.1041,-0.1057,-0.1073,-0.1085,-0.102,-0.0995,-0.1039,-0.1115,-0.1325,-0.1295,-0.1331,-0.1319,-0.166,-0.1663,-0.1666,-0.139,-0.137,-0.1353,0,0,0,0,0,0,-0.0926,-0.0936,-0.0946,-0.1015,-0.1034,-0.106,-0.1082,-0.109,-0.1022,-0.1012,-0.1108,-0.1126,-0.1253,-0.1286,-0.1317,-0.1302,-0.138,-0.1662,-0.1664,-0.1666,-0.1383,-0.1367,-0.1353,0,0,0,0,0,-0.0929,-0.0937,-0.1051,-0.1017,-0.1034,-0.1062,-0.1078,-0.1084,-0.1011,-0.1184,-0.1193,-0.0991,-0.1256,-0.128,-0.1305,-0.1285,-0.136,-0.1371,-0.1663,-0.1665,-0.1667,-0.1375,0,0,0,0,0,0,-0.0931,-0.0982,-0.1058,-0.1066,-0.0961,-0.1057,-0.1066,-0.1078,-0.1186,-0.1194,-0.1089,-0.1082,-0.1259,-0.1278,-0.1297,-0.127,-0.1344,-0.1355,-0.1362,-0.1665,-0.1666,-0.1668,0,0,0,0,0,0,-0.0977,-0.0988,-0.1063,-0.0991,-0.0992,-0.1053,-0.106,-0.1188,-0.1188,-0.1088,-0.1084,-0.1084,-0.1217,-0.1277,-0.1291,-0.1494,-0.1331,-0.1342,-0.1349,-0.1354,-0.1666,-0.1667,0,0,0,0,0,0,-0.0983,-0.0994,-0.099,-0.0991,-0.0992,-0.1097,-0.117,-0.1255,-0.1124,-0.1085,-0.1111,-0.1104,-0.1216,-0.1232,-0.1288,-0.1484,-0.1491,-0.1332,-0.1339,-0.1344,-0.1347,0,0,0,0,0,0,0,-0.0989,-0.0895,-0.0992,-0.0991,-0.0991,-0.114,-0.1144,-0.1148,-0.1123,-0.1118,-0.1112,-0.1107,-0.1272,-0.1283,-0.1295,-0.1476,0,0,-0.1331,-0.1336,0,0,0,0,0,0,0,0,-0.0893,-0.0895,-0.0992,-0.0993,-0.0994,-0.1141,-0.1144,-0.1147,-0.1122,-0.1118,-0.1113,-0.1109,-0.1275,-0.1284,-0.1294,0,0,0,0,0,0,0,0,0,0,0,0,0,0,0,-0.0992,-0.0993,0,-0.1141,-0.1144,-0.1146,-0.1121,-0.1118,-0.1114,-0.1111,-0.1277,-0.1285,-0.1293,0,0,0,0,0,0,0,0,0,0,0,0,0,0,0,0,0,0,0,0,0,0,0,0,0,0,0,0,0,0,0,0,0,0,0,0,0,0,0,0,0,0,0,0,0,0,0,0,0,0,0,0,0,0,0,0,0,0,0,0,0,0,0,0,0,0,0,0,0]}],[{"header":{"parameterUnit":"kt","parameterCategory":2,"dx":1,"dy":1,"la1":30.253999710083008,"la2":30.299108505249023,"lo1":-89.0895004272461,"lo2":-89.04439544677734,"nx":28,"ny":28,"refTime":"2022-09-19T21:00:00:Z","depth":"4","parameterNumber":3,"parameterNumberName":"V-component_of_CURRENTS"},"data":[0.12,0.1257,0.1303,0.1303,0.1411,0.1491,0.1515,0.1412,0.1227,0.1036,0.0923,0.0839,0.0637,0.0586,0.0416,0.0388,0.0645,0.0169,0.0171,0.0596,0.0615,0.0632,0.0368,0,0,0,0,0,0.1307,0.1296,0.1395,0.1602,0.1692,0.1836,0.1764,0.1713,0.1483,0.1169,0.1085,0.0785,0.0575,0.0351,0.0411,0.0214,0.0448,0.0281,0.0653,0.0608,0.0629,0.0365,0,0,0,0,0,0,0.1457,0.1477,0.173,0.1891,0.2006,0.2025,0.2022,0.1754,0.1575,0.11,0.0924,0.0565,0.0404,0.0291,0.0248,0.0299,0.0441,0.0605,0.0624,0.0644,0.0433,0.0445,0.0396,0,0,0,0,0,0.1566,0.1766,0.1869,0.2176,0.2281,0.2238,0.2148,0.2011,0.1668,0.1505,0.0984,0.0763,0.0448,0.0329,0.035,0.0429,0.055,0.0548,0.0567,0.0649,0.0681,0.0694,0.0698,0.0708,0.071,0.0712,0.0713,0,0.1689,0.1792,0.2142,0.2232,0.2378,0.2396,0.231,0.2143,0.1886,0.1374,0.1141,0.0857,0.0554,0.0411,0.0335,0.0474,0.048,0.0598,0.0683,0.0713,0.0722,0.0721,0.072,0.073,0.0728,0.0727,0.0726,0,0.1689,0.1938,0.2065,0.2231,0.2271,0.2265,0.2125,0.1924,0.1752,0.1408,0.1372,0.0903,0.0712,0.0603,0.0612,0.0625,0.0627,0.0635,0.0786,0.0798,0.0755,0.0746,0.0757,0.0751,0.0746,0.0742,0.0738,0,0.1788,0.1862,0.215,0.2246,0.2208,0.2093,0.1952,0.1758,0.151,0.1236,0.1051,0.0781,0.0769,0.0617,0.0705,0.066,0.0724,0.0727,0.0734,0.0851,0.0845,0.0846,0.0839,0.0882,0.088,0.0878,0.0876,0,0.1811,0.1936,0.2067,0.2051,0.196,0.1932,0.1812,0.1487,0.1299,0.1082,0.095,0.0773,0.0732,0.0781,0.071,0.0771,0.0695,0.0778,0.0729,0.0725,0.0831,0.0828,0.0873,0.0873,0.0872,0.0872,0.0871,0,0.1808,0.197,0.2113,0.1949,0.1957,0.1905,0.1584,0.1414,0.1098,0.1009,0.0865,0.0739,0.061,0.0695,0.0649,0.0626,0.0746,0.0746,0.0755,0.0543,0.0548,0.0911,0.0928,0.0927,0.0925,0.0924,0.0923,0,0.1719,0.1938,0.193,0.1934,0.1975,0.1813,0.1619,0.1407,0.1253,0.1062,0.0918,0.0764,0.0758,0.0736,0.069,0.0594,0.0668,0.0592,0.074,0.0747,0.0587,0.0544,0.0619,0.0905,0.0907,0.0909,0.091,0,0.1581,0.1796,0.1856,0.1849,0.1825,0.1795,0.1657,0.1452,0.1332,0.1257,0.1079,0.0835,0.0843,0.0709,0.0588,0.0568,0.0654,0.0632,0.0631,0.0785,0.0764,0.0557,0.055,0.0623,0.0622,0.0621,0.0898,0,0.1482,0.1578,0.1722,0.1762,0.1735,0.1822,0.1663,0.1613,0.1591,0.1446,0.1252,0.1086,0.0889,0.0828,0.0723,0.0595,0.0683,0.0626,0.0659,0.063,0.0761,0.0771,0.065,0.065,0.0649,0.0649,0,0,0.1276,0.1396,0.1468,0.1575,0.1562,0.1588,0.1616,0.1558,0.1474,0.1381,0.1465,0.1119,0.1012,0.0702,0.0672,0.0619,0.0691,0.0676,0.0633,0.0631,0.063,0.0753,0.0763,0.0649,0.0648,0.0648,0.0648,0,0.121,0.128,0.1421,0.1424,0.1557,0.1491,0.1559,0.1582,0.1574,0.1452,0.1331,0.1221,0.1036,0.0837,0.0718,0.0627,0.0696,0.0633,0.0645,0.0631,0.063,0.0629,0.075,0.0759,0.0648,0.0648,0.0648,0,0.102,0.1074,0.111,0.1163,0.1279,0.1279,0.1324,0.1495,0.1407,0.1327,0.1276,0.117,0.0976,0.0824,0.0782,0.0799,0.0726,0.0698,0.0697,0.0695,0.0681,0.0679,0.0677,0.071,0.0711,0.0712,0,0,0.0967,0.1059,0.1024,0.1132,0.1207,0.1255,0.1323,0.1349,0.1335,0.1371,0.1276,0.118,0.1008,0.097,0.0829,0.073,0.0757,0.0709,0.0706,0.0704,0.0701,0.0686,0.0683,0.0714,0.0714,0.0714,0,0,0.0939,0.0954,0.0949,0.1047,0.1071,0.1092,0.1267,0.1264,0.1278,0.136,0.1209,0.1179,0.1078,0.1022,0.1059,0.0866,0.0874,0.0863,0.091,0.0905,0.0902,0.0925,0.1018,0,0,0,0,0,0.0837,0.0927,0.0921,0.0936,0.1014,0.1057,0.1074,0.1174,0.1279,0.1353,0.1269,0.1265,0.0985,0.1014,0.0985,0.097,0.0742,0.0737,0.0732,0.0766,0.0761,0.0758,0,0,0,0,0,0,0.0842,0.0854,0.0919,0.093,0.095,0.1054,0.108,0.1107,0.1273,0.1296,0.1271,0.1256,0.114,0.1027,0.1001,0.0988,0.1026,0.074,0.0736,0.0732,0.0764,0.0761,0.0758,0,0,0,0,0,0.0847,0.0857,0.0964,0.0932,0.0949,0.1071,0.1084,0.1107,0.1281,0.1133,0.1136,0.1376,0.1137,0.1115,0.1011,0.1002,0.1044,0.1035,0.0737,0.0734,0.0731,0.0762,0,0,0,0,0,0,0.085,0.0876,0.0969,0.0979,0.097,0.1074,0.1094,0.1107,0.1109,0.1117,0.1208,0.1221,0.1134,0.1118,0.1101,0.101,0.1059,0.1049,0.1043,0.0735,0.0732,0.073,0,0,0,0,0,0,0.0871,0.0882,0.0974,0.1016,0.1031,0.1075,0.1093,0.0978,0.1101,0.1182,0.1197,0.1213,0.1102,0.1119,0.1106,0.0926,0.107,0.106,0.1054,0.105,0.0733,0.0731,0,0,0,0,0,0,0.0878,0.0887,0.1014,0.1025,0.1039,0.1148,0.0967,0.1011,0.1255,0.1175,0.1267,0.1272,0.1097,0.1089,0.1109,0.0935,0.0928,0.1069,0.1063,0.1058,0.1056,0,0,0,0,0,0,0,0.0883,0.0795,0.0917,0.1033,0.1045,0.1063,0.1065,0.1067,0.1256,0.1261,0.1265,0.127,0.1122,0.1112,0.1102,0.0942,0,0,0.107,0.1066,0,0,0,0,0,0,0,0,0.0794,0.0795,0.0917,0.0919,0.0921,0.1063,0.1065,0.1067,0.1257,0.126,0.1264,0.1268,0.112,0.1112,0.1103,0,0,0,0,0,0,0,0,0,0,0,0,0,0,0,0.0917,0.0919,0,0.1063,0.1065,0.1066,0.1257,0.126,0.1264,0.1267,0.1117,0.1111,0.1104,0,0,0,0,0,0,0,0,0,0,0,0,0,0,0,0,0,0,0,0,0,0,0,0,0,0,0,0,0,0,0,0,0,0,0,0,0,0,0,0,0,0,0,0,0,0,0,0,0,0,0,0,0,0,0,0,0,0,0,0,0,0,0,0,0,0,0,0,0]}]]]